| time (UTC) | temp F | wind direction | speed knots | gust knots | rain 1hr in | rain 24hr in | rain mn in | humidity % | barometer mb |
| 20260502123805 | 63 | 126 | 6.1 | 10.4 | 0.00 | 0.19 | 0.00 | 69 | 1024.3 |
| 20260502123305 | 64 | 103 | 7.8 | 11.3 | 0.00 | 0.19 | 0.00 | 69 | 1024.0 |
| 20260502122306 | 63 | 89 | 7.8 | 12.2 | 0.00 | 0.19 | 0.00 | 70 | 1024.4 |
| 20260502121805 | 63 | 130 | 4.3 | 12.2 | 0.00 | 0.19 | 0.00 | 71 | 1024.0 |
| 20260502121304 | 63 | 109 | 4.3 | 10.4 | 0.00 | 0.19 | 0.00 | 73 | 1024.3 |
| 20260502120805 | 62 | 102 | 6.1 | 10.4 | 0.00 | 0.19 | 0.00 | 74 | 1024.4 |
| 20260502120305 | 62 | 118 | 6.1 | 8.7 | 0.00 | 0.19 | 0.00 | 74 | 1024.4 |
| 20260502115804 | 63 | 117 | 3.5 | 7.8 | 0.00 | 0.19 | 0.00 | 74 | 1024.4 |
| 20260502115306 | 63 | 148 | 3.5 | 7.0 | 0.00 | 0.19 | 0.00 | 72 | 1024.4 |
| 20260502114804 | 62 | 107 | 6.1 | 10.4 | 0.00 | 0.19 | 0.00 | 72 | 1024.4 |
| 20260502113804 | 63 | 131 | 5.2 | 7.8 | 0.00 | 0.19 | 0.00 | 73 | 1024.6 |
| 20260502113305 | 62 | 127 | 5.2 | 7.0 | 0.00 | 0.19 | 0.00 | 73 | 1024.7 |
| 20260502112804 | 62 | 83 | 7.0 | 11.3 | 0.00 | 0.19 | 0.00 | 74 | 1024.7 |
| 20260502112306 | 63 | 166 | 3.5 | 8.7 | 0.00 | 0.19 | 0.00 | 72 | 1024.7 |
| 20260502111804 | 63 | 106 | 5.2 | 10.4 | 0.00 | 0.19 | 0.00 | 72 | 1024.7 |
| 20260502111305 | 63 | 73 | 5.2 | 10.4 | 0.00 | 0.19 | 0.00 | 72 | 1024.7 |
| 20260502110805 | 63 | 82 | 7.0 | 10.4 | 0.00 | 0.19 | 0.00 | 72 | 1024.7 |
| 20260502110304 | 62 | 97 | 6.1 | 11.3 | 0.00 | 0.19 | 0.00 | 70 | 1025.1 |
| 20260502105804 | 62 | 117 | 7.8 | 12.2 | 0.00 | 0.19 | 0.00 | 70 | 1024.7 |
| 20260502105306 | 62 | 97 | 6.1 | 11.3 | 0.00 | 0.19 | 0.00 | 70 | 1024.9 |
| 20260502104304 | 62 | 141 | 5.2 | 7.8 | 0.00 | 0.19 | 0.00 | 74 | 1024.7 |
| 20260502103804 | 62 | 84 | 8.7 | 14.8 | 0.00 | 0.19 | 0.00 | 74 | 1024.8 |
| 20260502103305 | 62 | 104 | 4.3 | 7.8 | 0.00 | 0.19 | 0.00 | 75 | 1024.9 |
| 20260502102306 | 62 | 55 | 3.5 | 7.8 | 0.00 | 0.19 | 0.00 | 77 | 1025.1 |
| 20260502101804 | 62 | 115 | 5.2 | 10.4 | 0.00 | 0.19 | 0.00 | 77 | 1025.1 |
| 20260502101305 | 61 | 83 | 5.2 | 8.7 | 0.00 | 0.19 | 0.00 | 77 | 1025.1 |
| 20260502100805 | 61 | 97 | 6.1 | 8.7 | 0.00 | 0.19 | 0.00 | 77 | 1025.2 |
| 20260502100304 | 61 | 224 | 2.6 | 7.0 | 0.00 | 0.19 | 0.00 | 79 | 1025.1 |
| 20260502091305 | 59 | 109 | 3.5 | 7.0 | 0.00 | 0.19 | 0.00 | 83 | 1025.4 |
| 20260502090805 | 59 | 143 | 2.6 | 7.0 | 0.00 | 0.19 | 0.00 | 83 | 1025.4 |
| 20260502071304 | 56 | 88 | 3.5 | 8.7 | 0.00 | 0.19 | 0.00 | 92 | 1025.7 |
| 20260502070805 | 56 | 99 | 3.5 | 11.3 | 0.00 | 0.20 | 0.00 | 93 | 1025.7 |
| 20260502070305 | 56 | 73 | 7.8 | 11.3 | 0.00 | 0.20 | 0.00 | 92 | 1025.7 |
| 20260502065805 | 56 | 86 | 5.2 | 8.7 | 0.00 | 0.21 | 0.00 | 92 | 1025.7 |
| 20260502065306 | 56 | 105 | 5.2 | 8.7 | 0.00 | 0.21 | 0.00 | 92 | 1025.4 |
| 20260502064806 | 56 | 99 | 4.3 | 11.3 | 0.00 | 0.22 | 0.00 | 92 | 1025.4 |
| 20260502064305 | 56 | 87 | 4.3 | 11.3 | 0.00 | 0.22 | 0.00 | 92 | 1025.3 |
| 20260502063305 | 55 | 58 | 3.5 | 7.8 | 0.00 | 0.24 | 0.00 | 93 | 1025.4 |
| 20260502062805 | 55 | 72 | 2.6 | 7.0 | 0.00 | 0.24 | 0.00 | 93 | 1025.3 |
| 20260502062306 | 55 | 89 | 5.2 | 7.0 | 0.00 | 0.24 | 0.00 | 93 | 1025.4 |
| 20260502061805 | 55 | 69 | 5.2 | 7.8 | 0.00 | 0.24 | 0.00 | 93 | 1025.4 |
| 20260502061305 | 55 | 100 | 4.3 | 7.8 | 0.00 | 0.24 | 0.00 | 93 | 1025.3 |
| 20260502060804 | 55 | 84 | 4.3 | 8.7 | 0.00 | 0.24 | 0.00 | 93 | 1025.4 |
| 20260502055306 | 55 | 97 | 2.6 | 7.8 | 0.00 | 0.24 | 0.00 | 94 | 1025.4 |
| 20260502053804 | 55 | 70 | 6.1 | 8.7 | 0.00 | 0.24 | 0.00 | 94 | 1025.1 |
| 20260502053304 | 55 | 84 | 6.1 | 7.0 | 0.00 | 0.24 | 0.00 | 94 | 1025.3 |
| 20260502052804 | 55 | 74 | 3.5 | 6.1 | 0.00 | 0.24 | 0.00 | 94 | 1025.4 |
| 20260502052306 | 55 | 81 | 4.3 | 8.7 | 0.00 | 0.24 | 0.00 | 94 | 1025.1 |
| 20260502051305 | 55 | 108 | 4.3 | 7.0 | 0.00 | 0.24 | 0.00 | 93 | 1025.1 |
| 20260502050804 | 55 | 62 | 4.3 | 10.4 | 0.00 | 0.24 | 0.00 | 93 | 1025.1 |
| 20260502050304 | 55 | 81 | 6.1 | 10.4 | 0.00 | 0.24 | 0.00 | 92 | 1025.1 |
| 20260502045804 | 55 | 72 | 6.1 | 11.3 | 0.00 | 0.24 | 0.00 | 92 | 1025.1 |
| 20260502045306 | 55 | 69 | 5.2 | 7.8 | 0.00 | 0.24 | 0.00 | 92 | 1025.1 |
| 20260502044804 | 55 | 93 | 5.2 | 8.7 | 0.00 | 0.24 | 0.00 | 92 | 1025.0 |
| 20260502044304 | 55 | 69 | 6.1 | 8.7 | 0.00 | 0.24 | 0.00 | 93 | 1025.1 |
| 20260502043304 | 55 | 139 | 3.5 | 6.1 | 0.00 | 0.24 | 0.00 | 93 | 1025.4 |
| 20260502042804 | 55 | 99 | 3.5 | 7.0 | 0.00 | 0.24 | 0.00 | 93 | 1025.4 |
| 20260502042306 | 55 | 110 | 4.3 | 7.8 | 0.00 | 0.24 | 0.00 | 93 | 1025.4 |
| 20260502041805 | 55 | 97 | 2.6 | 7.0 | 0.00 | 0.24 | 0.00 | 93 | 1025.4 |
| 20260502041305 | 55 | 82 | 5.2 | 7.8 | 0.00 | 0.24 | 0.00 | 93 | 1025.4 |